Home > Weather > Charleroi > Past weeks

Flag for Belgium Weather for the Past 2 Weeks in Charleroi, Belgium

Now
39 °F

Passing clouds.


Feels Like: 32 °F
Forecast: 39 / 47 °F
Wind: 10 mph from Southwest

Location: Charleroi / Gosselies

Current Time: Apr 29, 2016 at 5:03:44 AM

Latest Report: Apr 29, 2016 at 4:20 AM


Visibility: N/A

Pressure: 29.92 "Hg

Humidity: 70%

Dew Point: 30 °F

Location of CharleroiLocation

Historic Weather in Charleroi — Graph

°F

Charleroi Temperature Yesterday

Maximum temperature yesterday: 48 °F (at 4:50 PM)
Minimum temperature yesterday: 34 °F (at 1:50 AM)
Average temperature yesterday: 41 °F

High & Low Weather Summary for the Past Weeks

 TemperatureHumidityPressure
High66 °F (Apr 21, 3:50 PM)100% (Apr 18, 2:50 AM)30.42 "Hg (Apr 18, 2:50 AM)
Low32 °F (Apr 27, 7:50 AM)35% (Apr 21, 4:20 PM)29.53 "Hg (Apr 15, 8:20 PM)
Average45 °F73%29.96 "Hg
* Reported Apr 14 3:50 AM — Apr 29 3:20 AM, Charleroi, Weather by CustomWeather, © 2016

Note: Actual official high and low records may vary slightly from our data, if they occured in-between our weather recording intervals... More about our weather records

Advertising

Charleroi Weather History for the Previous 24 Hours

Scroll right to see more
 ConditionsComfort  
Time TempWeatherWind HumidityBarometerVisibility
3:20 AM
Fri, Apr 29
39 °FPassing clouds.14 mph70%29.92 "HgN/A
2:50 AM39 °FPassing clouds.12 mph75%29.95 "HgN/A
2:20 AM39 °FPassing clouds.8 mph75%29.95 "HgN/A
1:50 AM41 °FPassing clouds.8 mph70%29.95 "HgN/A
1:20 AM41 °FClear.8 mph70%29.95 "Hg10 mi
12:50 AM39 °FPassing clouds.7 mph75%29.95 "HgN/A
12:20 AM41 °FPassing clouds.7 mph66%29.98 "HgN/A
11:50 PM
Thu, Apr 28
41 °FPassing clouds.6 mph61%29.98 "HgN/A
11:20 PM41 °FPassing clouds.6 mph57%29.98 "HgN/A
10:50 PM43 °FPassing clouds.6 mph53%29.98 "HgN/A
10:20 PM43 °FPassing clouds.5 mph49%29.98 "HgN/A
9:50 PM43 °FPassing clouds.7 mph49%29.98 "HgN/A
9:20 PM45 °FPassing clouds.8 mph42%29.98 "HgN/A
8:50 PM45 °FPassing clouds.8 mph46%29.98 "HgN/A
8:20 PM46 °FPassing clouds.12 mph43%29.98 "HgN/A
7:50 PM46 °FPassing clouds.13 mph40%29.98 "HgN/A
7:20 PM46 °FPassing clouds.9 mph62%29.98 "HgN/A
6:50 PM48 °FPassing clouds.9 mph54%29.98 "HgN/A
6:20 PM46 °FPassing clouds.6 mph62%29.98 "HgN/A
5:50 PM46 °FPassing clouds.5 mph66%29.98 "HgN/A
5:20 PM46 °FScattered clouds.9 mph62%29.98 "HgN/A
4:50 PM48 °FScattered clouds.6 mph54%29.98 "HgN/A
4:20 PM46 °FScattered clouds.14 mph66%29.98 "HgN/A
3:50 PM46 °FScattered clouds.10 mph71%29.98 "HgN/A
3:20 PM43 °FScattered clouds.9 mph76%29.98 "HgN/A
2:50 PM41 °FSprinkles. Scattered clouds.14 mph76%29.98 "HgN/A
2:20 PM46 °FScattered clouds.16 mph57%29.98 "HgN/A
1:50 PM46 °FScattered clouds.17 mph57%29.98 "HgN/A
1:20 PM46 °FScattered clouds.13 mph53%29.98 "HgN/A
12:50 PM46 °FScattered clouds.12 mph53%29.98 "HgN/A
12:20 PM45 °FScattered clouds.14 mph57%29.98 "HgN/A
11:50 AM45 °FScattered clouds.9 mph61%29.98 "HgN/A
11:20 AM43 °FScattered clouds.6 mph71%29.98 "HgN/A
10:50 AM43 °FScattered clouds.9 mph66%29.98 "HgN/A
9:50 AM41 °FPassing clouds.7 mph81%29.98 "HgN/A
9:20 AM39 °FSunny.6 mph87%29.98 "Hg10 mi
7:50 AM36 °FPassing clouds.5 mph87%29.95 "HgN/A
6:50 AM34 °FClear.7 mph87%29.95 "Hg10 mi
5:50 AM34 °FClear.6 mph93%29.92 "Hg10 mi
5:20 AM34 °FPassing clouds.6 mph93%29.92 "HgN/A
Weather by CustomWeather, © 2016

See weather overviewHow to use our weather pages